Wind_Speed
7 8 7 7 6 6 7 6 5 5 5 5 5 5 5 6 6 6 6 6 6 5 5 6 6 6 6 6 6 6 6 7 7 8 8 9 9 9 8 8 9 10 10
7 7 7 7 6 6 6 6 6 6 5 5 5 4 5 4 4 4 4 4 4 4 3 4 4 4 5 5 5 6 6 7 7 7 8 8 8 8 8 8 8 9 9
7 7 7 6 6 6 6 6 6 6 5 5 5 4 4 4 3 3 2 2 2 3 3 3 3 3 4 5 5 5 6 6 6 7 7 7 7 7 7 7 7 8 8
7 7 7 6 6 6 6 6 6 5 5 4 4 4 4 3 3 2 1 1 2 2 3 2 2 3 4 4 4 4 4 4 5 5 5 6 5 6 6 6 6 7 7
7 7 7 7 6 6 6 6 6 5 5 4 4 3 3 3 3 2 2 3 3 2 2 3 2 2 3 3 4 4 4 4 4 5 5 5 6 6 5 6 6 7 7
7 7 7 7 7 6 5 5 5 5 5 4 3 3 2 2 2 3 3 3 3 2 3 3 3 3 3 3 4 4 4 4 4 5 5 5 5 5 6 7 7 8 8
6 7 7 7 7 6 6 5 5 5 5 4 3 3 3 3 3 3 3 4 4 3 3 4 4 3 3 3 4 4 5 5 5 5 6 6 6 5 6 7 8 8 9
6 7 7 7 7 7 6 6 6 6 5 4 4 4 3 3 3 3 3 4 4 3 3 4 4 4 4 4 4 5 5 4 4 5 5 6 6 6 6 7 8 8 9
7 6 7 7 7 7 7 6 6 6 5 4 4 4 4 3 3 3 4 4 5 5 4 4 4 4 4 4 4 4 4 4 5 5 6 6 6 7 7 8 9 9 9
7 7 6 6 6 7 7 7 6 6 5 4 4 4 4 4 4 4 5 5 5 5 5 5 5 5 5 5 4 5 5 6 7 7 7 6 7 7 8 9 9 9 9
8 7 7 6 7 7 7 7 7 6 5 5 5 4 5 5 5 5 5 5 5 5 5 5 5 5 6 6 6 6 6 7 7 7 7 7 7 8 8 9 9 10 10
8 8 7 7 7 7 7 7 7 6 6 5 5 5 5 5 5 5 5 6 6 6 6 6 6 7 7 7 8 8 7 7 8 8 8 8 8 9 9 9 10 10 11
9 9 9 9 8 7 7 8 8 7 7 7 7 7 7 7 7 7 7 6 6 7 6 6 7 8 8 8 7 7 8 8 8 8 8 8 9 9 10 10 11 11 11
10 10 10 10 9 8 8 8 8 8 7 7 8 8 7 7 7 8 8 8 8 7 7 7 8 8 7 7 7 7 8 9 8 9 9 10 10 10 11 11 11 12 12
11 11 11 11 10 10 10 9 9 9 8 8 8 9 8 8 8 8 8 8 8 8 8 8 8 8 7 7 8 8 8 8 9 9 10 11 11 11 11 12 13 13 14
13 13 13 12 12 12 11 11 11 10 9 9 9 9 9 9 9 9 9 9 9 9 9 9 8 8 8 8 8 9 9 9 10 10 11 12 12 12 13 14 14 14 15
15 14 14 14 13 13 13 13 12 11 11 11 10 10 10 11 11 11 10 10 10 10 9 9 9 9 9 9 9 10 10 11 12 12 12 13 13 14 14 15 16 16 17
17 16 16 15 15 15 14 14 14 13 13 12 12 12 12 12 12 11 12 11 11 11 10 10 10 10 10 11 11 11 12 13 13 14 14 14 14 15 16 16 17 18 19
18 18 17 16 16 15 15 15 14 14 14 13 13 13 12 13 13 13 13 13 13 13 13 13 13 13 13 14 14 14 14 14 15 15 15 15 15 16 16 17 18 19 20
20 19 18 18 17 17 16 15 15 15 15 15 14 14 13 14 14 13 14 14 14 14 14 14 14 15 15 15 16 16 16 16 16 16 16 16 17 17 18 19 20 21 22
21 21 20 19 19 18 18 17 17 17 17 16 16 16 15 15 16 15 15 15 15 15 15 15 16 16 17 17 17 17 17 17 18 18 18 18 18 19 20 20 21 22 23
23 22 22 21 20 20 20 19 19 19 19 19 18 18 17 17 17 17 17 16 16 16 16 17 17 18 18 19 19 19 19 19 19 20 20 21 21 21 21 22 22 23 24
24 24 23 23 22 22 22 21 21 20 20 20 20 20 19 19 19 18 19 19 19 18 19 19 19 19 19 20 20 20 21 21 21 22 22 23 23 23 23 23 24 25 25
25 25 25 24 23 22 22 23 22 22 22 22 21 21 21 20 20 20 20 20 21 21 20 20 20 20 21 21 21 21 22 22 23 23 24 25 25 25 25 25 26 26 27
26 26 27 26 25 24 24 24 24 24 24 24 23 23 22 22 22 22 22 22 22 23 23 23 23 22 22 22 22 23 23 23 24 25 25 25 26 26 26 27 27 28 28
27 28 28 27 27 27 26 25 25 25 25 25 25 24 24 24 24 24 24 23 23 24 24 24 24 24 24 24 23 24 25 25 26 26 26 26 27 27 28 28 29 28 28
Wind_Direction
327 325 322 317 317 321 327 326 320 313 311 310 306 305 298 295 290 281 280 278 278 274 267 256 253 252 247 250 253 257 255 248 245 244 245 247 248 251 249 248 248 251 256
337 331 327 322 314 320 323 325 324 323 315 311 313 316 316 311 302 284 279 272 275 269 268 256 246 240 239 247 258 259 254 249 245 244 248 250 252 250 247 249 251 253 259
340 338 336 332 324 318 322 327 326 323 314 308 308 313 320 322 317 310 288 269 270 273 272 262 242 239 244 253 263 270 262 252 246 249 253 253 255 252 250 252 258 262 264
350 345 342 338 331 323 322 327 330 323 316 305 303 308 317 324 322 321 298 296 290 283 278 271 266 258 256 255 260 268 265 252 246 251 257 259 257 247 251 254 260 264 267
348 343 341 340 335 327 325 325 323 322 316 304 301 306 308 312 305 288 284 303 311 296 290 286 289 279 266 264 265 264 267 267 265 264 266 269 258 246 250 258 262 263 267
341 339 339 337 334 333 330 324 323 325 319 303 293 298 295 298 300 298 286 290 300 306 306 293 287 285 267 263 265 264 269 278 277 274 272 271 258 253 253 256 264 268 271
334 335 334 333 329 331 333 322 320 322 322 312 291 286 281 277 283 292 293 294 299 298 292 290 287 284 281 272 269 272 272 278 275 274 274 274 270 273 272 266 266 268 269
325 327 328 327 326 330 332 325 321 322 323 313 291 284 272 265 273 285 295 304 311 316 299 285 280 279 281 282 283 279 278 280 277 274 273 277 278 282 286 279 275 272 272
320 321 321 320 319 322 328 328 319 319 319 319 299 281 266 259 266 278 293 301 301 299 290 274 279 277 278 280 278 277 278 283 288 280 278 279 279 285 288 284 279 278 280
313 314 316 317 316 317 321 322 318 310 305 304 303 288 271 269 278 280 287 296 300 292 280 274 276 278 275 275 275 278 278 283 288 283 278 278 280 283 285 284 280 277 278
308 306 310 315 317 314 313 311 309 309 304 295 299 300 288 280 279 280 284 293 297 293 284 274 270 274 276 275 272 276 280 281 286 284 280 278 278 281 285 285 283 281 283
296 297 300 303 308 309 310 308 304 297 296 293 292 299 300 291 288 283 281 283 285 285 283 277 274 275 277 278 274 268 270 276 279 281 282 281 280 281 285 288 289 289 290
290 289 292 295 296 300 302 303 301 295 289 285 287 287 292 293 294 292 291 290 288 285 284 279 277 278 279 282 277 267 270 276 278 279 281 282 283 284 287 288 290 292 292
286 284 286 290 291 292 293 294 295 292 290 285 283 283 284 288 291 291 291 291 290 287 285 282 282 282 281 282 277 275 278 279 278 279 280 282 284 285 288 289 290 292 291
280 281 282 285 288 288 287 287 287 285 283 280 279 280 281 284 285 286 286 286 285 284 281 280 281 283 282 282 280 280 282 282 282 283 284 284 285 287 288 290 291 292 292
277 278 280 280 282 283 282 281 282 282 279 276 277 278 278 281 284 284 283 283 281 280 279 279 277 276 276 276 278 280 283 285 285 286 288 287 287 288 289 289 291 292 294
274 275 278 279 279 280 280 278 279 279 277 278 277 276 277 278 280 280 280 280 280 279 275 273 273 273 274 276 279 281 282 284 285 286 288 288 287 288 290 290 292 293 294
270 272 274 275 276 278 277 276 277 276 275 275 273 273 274 276 273 274 275 276 276 275 274 272 271 273 275 276 279 281 284 286 287 287 289 289 287 288 290 290 291 293 294
267 268 271 273 273 275 276 275 274 274 274 274 271 271 271 271 271 271 271 272 273 274 273 272 271 271 272 274 278 280 284 286 287 287 287 287 288 290 291 291 292 294 297
266 267 268 271 271 272 273 273 273 273 273 272 270 271 270 269 269 270 270 271 272 274 274 271 270 273 275 276 278 281 282 284 286 287 287 288 289 290 292 292 294 296 298
265 266 265 267 268 269 270 271 272 273 272 271 269 269 270 269 271 272 271 269 271 274 275 273 272 274 276 277 279 281 282 284 286 287 288 290 290 292 293 295 296 297 297
263 265 265 265 266 267 268 269 269 270 271 271 269 268 268 268 269 270 270 271 271 273 276 278 277 277 279 279 278 280 281 283 285 287 288 290 291 292 294 296 297 298 299
260 262 263 264 265 267 267 267 268 270 270 269 269 268 267 267 266 266 268 270 272 272 275 277 278 279 279 279 278 279 280 282 284 287 288 289 291 292 293 295 297 298 299
258 259 260 262 264 266 266 266 265 267 268 268 268 268 267 266 265 265 267 269 271 272 273 276 277 279 279 279 279 279 280 282 284 287 289 289 290 291 292 294 296 298 299
259 260 260 260 262 264 266 267 265 265 266 268 268 267 266 266 266 267 267 267 269 270 272 274 276 278 279 279 278 278 279 281 283 287 289 289 289 290 292 294 295 296 298
262 261 260 261 262 263 266 267 266 264 265 267 267 266 266 265 265 266 267 269 269 270 271 273 275 276 278 279 278 278 280 281 283 285 286 287 288 289 290 292 293 295 297
Height
5859 5858 5857 5856 5855 5854 5853 5852 5851 5850 5849 5849 5848 5847 5846 5845 5845 5844 5843 5843 5843 5842 5842 5842 5842 5842 5842 5842 5842 5842 5842 5842 5843 5843 5843 5844 5844 5844 5844 5844 5844 5844 5844
5858 5857 5856 5855 5854 5853 5852 5851 5850 5849 5848 5847 5846 5846 5845 5844 5843 5843 5842 5842 5841 5841 5840 5840 5840 5840 5840 5841 5841 5841 5841 5841 5841 5842 5842 5842 5842 5842 5842 5842 5842 5842 5842
5857 5856 5854 5853 5852 5852 5851 5850 5849 5848 5847 5846 5846 5845 5844 5843 5843 5842 5841 5841 5841 5840 5840 5839 5839 5839 5839 5840 5840 5839 5839 5839 5840 5840 5840 5840 5840 5840 5841 5841 5841 5840 5840
5856 5855 5853 5852 5851 5851 5850 5848 5848 5847 5846 5845 5845 5844 5844 5843 5843 5842 5841 5841 5840 5840 5840 5839 5839 5839 5839 5839 5839 5839 5838 5838 5838 5839 5839 5839 5839 5839 5839 5839 5839 5839 5838
5856 5854 5853 5852 5851 5850 5849 5848 5847 5846 5845 5845 5844 5843 5843 5842 5842 5842 5841 5841 5840 5840 5839 5839 5838 5838 5838 5838 5838 5838 5838 5837 5837 5837 5837 5837 5837 5837 5838 5838 5837 5837 5837
5855 5854 5852 5851 5850 5849 5848 5847 5846 5845 5845 5844 5843 5843 5842 5842 5841 5841 5841 5840 5840 5839 5839 5838 5838 5837 5837 5837 5837 5837 5837 5836 5836 5836 5836 5836 5836 5836 5836 5836 5836 5836 5836
5854 5853 5852 5851 5849 5848 5847 5846 5846 5845 5844 5843 5842 5842 5841 5841 5841 5840 5840 5840 5839 5838 5838 5838 5837 5837 5836 5836 5836 5836 5836 5835 5835 5835 5835 5834 5834 5834 5834 5834 5834 5834 5834
5853 5852 5851 5850 5849 5847 5846 5845 5845 5844 5843 5842 5841 5841 5840 5840 5840 5840 5839 5839 5838 5838 5837 5837 5836 5836 5836 5835 5835 5835 5834 5834 5834 5834 5834 5833 5833 5833 5832 5832 5832 5832 5832
5852 5850 5850 5849 5848 5846 5845 5844 5843 5842 5842 5841 5840 5840 5839 5839 5839 5839 5838 5838 5837 5837 5836 5836 5835 5835 5835 5834 5834 5834 5833 5833 5833 5832 5832 5832 5832 5831 5831 5830 5830 5830 5829
5850 5849 5848 5847 5846 5845 5844 5843 5842 5841 5841 5840 5840 5839 5838 5838 5838 5838 5837 5837 5836 5835 5835 5834 5834 5834 5833 5833 5833 5833 5832 5832 5831 5831 5831 5830 5830 5829 5829 5828 5828 5827 5827
5848 5847 5846 5846 5845 5844 5843 5842 5841 5840 5840 5839 5839 5838 5838 5837 5837 5836 5836 5836 5835 5834 5833 5833 5833 5832 5832 5832 5831 5831 5831 5830 5830 5829 5829 5828 5828 5827 5827 5826 5825 5825 5824
5846 5845 5844 5844 5843 5842 5841 5840 5840 5839 5838 5838 5837 5837 5836 5836 5835 5835 5834 5834 5833 5833 5832 5832 5831 5831 5830 5830 5829 5829 5829 5828 5828 5827 5827 5826 5825 5825 5824 5824 5823 5822 5821
5843 5843 5842 5841 5841 5840 5839 5839 5838 5837 5837 5836 5836 5835 5835 5834 5834 5833 5833 5832 5831 5831 5830 5829 5829 5829 5828 5827 5827 5827 5827 5826 5825 5825 5824 5824 5823 5823 5822 5821 5820 5819 5818
5840 5839 5839 5839 5838 5838 5837 5836 5836 5835 5835 5834 5834 5833 5833 5832 5832 5831 5831 5830 5829 5828 5828 5827 5827 5826 5826 5825 5825 5825 5824 5824 5823 5822 5822 5821 5821 5820 5819 5818 5817 5816 5815
5836 5836 5836 5836 5835 5835 5834 5834 5833 5833 5832 5832 5831 5831 5830 5830 5829 5829 5828 5827 5827 5826 5826 5825 5825 5824 5824 5823 5823 5822 5822 5821 5821 5820 5819 5819 5818 5817 5816 5815 5814 5813 5811
5833 5833 5832 5832 5832 5832 5831 5831 5830 5830 5829 5829 5828 5828 5827 5827 5826 5826 5825 5825 5824 5824 5823 5823 5822 5822 5821 5821 5820 5820 5819 5818 5818 5817 5816 5815 5814 5813 5812 5811 5810 5809 5807
5828 5828 5828 5828 5828 5828 5828 5827 5827 5826 5826 5825 5825 5824 5824 5824 5823 5823 5822 5822 5821 5821 5821 5820 5820 5819 5819 5818 5818 5817 5816 5816 5815 5814 5813 5812 5811 5810 5808 5807 5806 5804 5802
5824 5824 5824 5824 5824 5824 5823 5823 5823 5822 5822 5821 5821 5821 5821 5820 5820 5819 5819 5819 5818 5818 5817 5817 5817 5816 5816 5815 5815 5814 5813 5812 5811 5810 5809 5808 5807 5806 5804 5803 5801 5799 5797
5818 5819 5819 5819 5819 5819 5818 5818 5818 5818 5818 5817 5817 5817 5817 5816 5816 5815 5815 5815 5815 5814 5814 5813 5813 5813 5812 5812 5811 5810 5809 5808 5807 5806 5805 5804 5803 5801 5800 5798 5796 5794 5792
5812 5813 5813 5813 5814 5814 5813 5814 5814 5813 5813 5813 5812 5812 5812 5812 5812 5811 5811 5811 5810 5810 5810 5809 5809 5808 5808 5807 5806 5806 5805 5804 5803 5802 5801 5799 5798 5796 5794 5793 5791 5789 5786
5806 5807 5807 5807 5808 5808 5808 5808 5808 5808 5808 5808 5808 5807 5807 5807 5807 5807 5806 5806 5806 5805 5805 5805 5804 5803 5803 5802 5802 5801 5800 5799 5798 5797 5795 5794 5792 5791 5789 5787 5785 5782 5780
5799 5800 5800 5801 5801 5802 5802 5802 5802 5802 5802 5802 5802 5802 5802 5802 5802 5801 5801 5801 5801 5800 5800 5799 5799 5798 5798 5797 5796 5795 5794 5793 5792 5791 5790 5788 5786 5784 5782 5780 5778 5775 5773
5792 5793 5793 5794 5795 5795 5795 5796 5796 5796 5796 5796 5796 5796 5796 5796 5796 5796 5795 5795 5795 5795 5794 5794 5793 5792 5792 5791 5790 5789 5788 5787 5786 5785 5783 5781 5780 5778 5776 5773 5771 5768 5765
5784 5785 5786 5786 5787 5787 5788 5788 5789 5789 5789 5789 5790 5790 5790 5789 5789 5789 5789 5789 5789 5789 5788 5787 5787 5786 5785 5784 5783 5782 5781 5780 5779 5778 5776 5774 5772 5770 5768 5766 5763 5760 5758
5775 5776 5777 5778 5779 5779 5780 5780 5781 5781 5782 5782 5782 5782 5783 5782 5782 5782 5782 5782 5782 5781 5781 5781 5780 5779 5778 5777 5776 5775 5774 5773 5771 5770 5768 5766 5765 5763 5760 5758 5755 5752 5750
5766 5767 5768 5769 5770 5771 5771 5772 5772 5773 5774 5774 5774 5774 5775 5775 5775 5775 5775 5774 5774 5774 5774 5773 5773 5772 5771 5770 5768 5767 5766 5765 5763 5762 5760 5758 5756 5754 5752 5750 5747 5744 5741